Home   Weather   Guiyang   Past weeks
Flag for China

Past Weather in Guiyang, Guizhou, China — Yesterday and Last 2 Weeks

Now
72 °F

Sunny.


Feels Like: 75 °F
Forecast: 78 / 64 °F
Wind: 1 mph from North

Location: Guiyang Airport

Current Time: May 23, 2019 at 11:09:51 am

Latest Report: May 23, 2019 at 10:00 am


Visibility: 10 mi

Pressure: 30.04 "Hg (26.55 "Hg at 1067m altitude)

Humidity: 65%

Dew Point: 59 °F

Location of GuiyangLocation

Past Weather in Guiyang — Graph

°F

Guiyang Temperature Yesterday

Maximum temperature yesterday: 75 °F (at 3:00 pm)
Minimum temperature yesterday: 54 °F (at 6:00 am)
Average temperature yesterday: 65 °F

High & Low Weather Summary for the Past Weeks

 TemperatureHumidityPressure
High90 °F (May 18, 2:00 pm)100% (May 9, 7:00 am)30.15 "Hg (May 9, 7:00 am)
Low52 °F (May 8, 9:00 am)49% (May 18, 2:00 pm)29.62 "Hg (May 18, 3:00 pm)
Average67 °F83%29.92 "Hg
* Reported May 8 9:00 am — May 23 9:00 am, Guiyang. Weather by CustomWeather, © 2019

Note: Actual official high and low records may vary slightly from our data, if they occured in-between our weather recording intervals... More about our weather records

Advertising

Guiyang Weather History for the Previous 24 Hours

Scroll right to see more
 ConditionsComfort  
Time TempWeatherWind HumidityBarometerVisibility
9:00 am
Thu, May 23
66 °FSunny.1 mph73%30.04 "Hg10 mi
8:00 am59 °FPassing clouds.1 mph88%30.04 "Hg5 mi
7:00 am54 °FPassing clouds.3 mph100%30.01 "Hg5 mi
6:00 am54 °FPassing clouds.1 mph94%30.01 "Hg5 mi
5:00 am54 °FPassing clouds.1 mph100%30.01 "Hg5 mi
4:00 am54 °FPassing clouds.1 mph100%30.01 "Hg5 mi
3:00 am55 °FPassing clouds.No wind94%30.01 "HgN/A
2:00 am57 °FPassing clouds.3 mph94%30.01 "HgN/A
1:00 am59 °FClear.3 mph88%30.04 "Hg10 mi
12:00 am59 °FPassing clouds.3 mph88%30.01 "HgN/A
11:00 pm
Wed, May 22
59 °FPassing clouds.3 mph88%30.01 "HgN/A
10:00 pm59 °FPassing clouds.6 mph88%30.01 "HgN/A
9:00 pm66 °FPassing clouds.3 mph68%29.98 "HgN/A
8:00 pm68 °FPassing clouds.3 mph64%29.98 "HgN/A
7:00 pm72 °FScattered clouds.6 mph57%29.95 "HgN/A
6:00 pm75 °FScattered clouds.8 mph54%29.95 "HgN/A
5:00 pm75 °FScattered clouds.6 mph54%29.95 "HgN/A
4:00 pm75 °FScattered clouds.6 mph54%29.98 "HgN/A
3:00 pm75 °FScattered clouds.3 mph50%29.98 "HgN/A
2:00 pm73 °FScattered clouds.3 mph57%30.01 "HgN/A
1:00 pm73 °FScattered clouds.8 mph57%30.01 "HgN/A
12:00 pm72 °FPartly sunny.6 mph65%30.04 "HgN/A
11:00 am70 °FPartly sunny.6 mph64%30.04 "HgN/A
Weather by CustomWeather, © 2019

See weather overview